Weather Roundup
Issued by NWS

Home | Current Version | Previous Version | Text Only | Print | Product List | Glossary On
Versions: 1 2 3 4 5 6 7 8 9 10 11 12 13 14 15 16 17 18 19 20 21 22 23 24 25 26 27 28 29 30 31 32 33 34 35 36 37 38 39 40 41 42 43 44 45 46 47 48 49 50
157
NZUS93 KARX 260110
HRRWXR

CURRENT HOURLY OBSERVATIONS ACROSS
MUCH OF THE UPPER MISSISSIPPI VALLEY
NATIONAL WEATHER SERVICE LA CROSSE WI
800 PM CDT SUN JUN 25 2017


...SOUTHEAST MINNESOTA...


CITY           SKY/WX    TMP DP  RH WIND       PRES   REMARKS
ROCHESTER      CLEAR     62  43  49 NW13      30.15S
ROCHESTER/MAYO FAIR      64  39  40 W17G25    30.14R
WINONA         CLEAR     64  45  48 NW5       30.12S
AUSTIN         CLEAR     63  37  39 NW13      30.15S
ALBERT LEA     CLEAR     64  36  34 NW8       30.17S
DODGE CENTER   CLEAR     63  37  39 NW15      30.15S
PRESTON        PTCLDY    61  42  49 NW10      30.15R
OWATONNA       CLEAR     64  43  45 NW10      30.15F
FARIBAULT      CLEAR     64  39  39 W6        30.15S
$$

...ELSEWHERE IN MINNESOTA...


CITY           SKY/WX    TMP DP  RH WIND       PRES   REMARKS
MINNEAPOLIS    PTCLDY    65  39  38 NW12      30.12S
INTNL FALLS    MOSUNNY   54  47  77 CALM      30.13R
DULUTH         PTCLDY    55  44  66 NW10      30.08S
RED WING       PTCLDY    66  37  34 NW10      30.10F
REDWOOD FALLS  MOCLDY    64  46  52 N5        30.17S
MANKATO        CLOUDY    65  41  41 NW7       30.16S
WORTHINGTON    CLOUDY    63  44  50 N13       30.22S
FAIRMONT       CLOUDY    65  42  43 NW9       30.19F
$$

...SOUTHWEST WISCONSIN...


CITY           SKY/WX    TMP DP  RH WIND       PRES   REMARKS
LA CROSSE      PTCLDY    70  46  42 W12       30.10S
PRAIRIE DU CHI CLEAR     65  44  45 W9        30.12S
BOSCOBEL       CLEAR     66  49  54 VRB3      30.12S
LONE ROCK      CLEAR     64  49  57 W8        30.10S
PLATTEVILLE    CLEAR     64  49  59 W7        30.13S
FORT MC COY    CLEAR     63  50  62 CALM      30.10S
MAUSTON-NEW LI MOCLDY    59  49  68 NW6       30.09S
VIROQUA        FAIR      62  47  59 NW9       30.12R
WIS DELLS      PTCLDY    56  53  90 W3        30.10S
$$

...ELSEWHERE IN WISCONSIN...


CITY           SKY/WX    TMP DP  RH WIND       PRES   REMARKS
MILWAUKEE      PTCLDY    66  49  54 W10G18    30.07R
MADISON        MOCLDY    57  53  86 NW3       30.10R
GREEN BAY      CLOUDY    59  55  87 NW12      30.03S
EAU CLAIRE     LGT RAIN  55  49  80 CALM      30.10R
BLACK RVR FLS  LGT RAIN  61  47  59 N7        30.09S
MEDFORD        MOCLDY    55  46  72 NW6       30.07S
WAUSAU         PTCLDY    57  47  69 NW10G23   30.05R
WIS RAPIDS     CLEAR     59  51  75 NW8       30.09R
MARSHFIELD     MOCLDY    57  50  77 NW12G21   30.08R
RICE LAKE      MOCLDY    57  46  65 NW7       30.12S
$$

...NORTHEAST IOWA...


CITY           SKY/WX    TMP DP  RH WIND       PRES   REMARKS
WATERLOO       CLEAR     67  40  37 NW9       30.15S
DUBUQUE        CLEAR     63  46  54 NW10      30.15R
DECORAH        CLEAR     63  43  48 VRB7G13   30.13S
MASON CITY     PTCLDY    64  38  38 NW14      30.19S
CHARLES CITY   CLEAR     64  39  39 NW14G21   30.16F
OELWEIN        PTCLDY    64  45  48 NW10      30.16S
$$

...ELSEWHERE IN IOWA...


CITY           SKY/WX    TMP DP  RH WIND       PRES   REMARKS
DES MOINES     PTCLDY    72  41  32 W9        30.19S
IOWA CITY      CLEAR     70  43  37 NW9       30.17S
FORT DODGE     CLEAR     68  39  34 N7        30.21S
MARSHALLTOWN   CLEAR     67  45  45 NW9       30.17S
CEDAR RAPIDS   CLEAR     66  45  46 NW8       30.15S
$$

...NORTHERN ILLINOIS...


CITY           SKY/WX    TMP DP  RH WIND       PRES   REMARKS
CHICAGO-OHARE  MOCLDY    66  47  50 W18G26    30.09R
CHICAGO-MIDWAY PTCLDY    66  47  50 W16G25    30.10R
MOLINE         CLEAR     68  47  46 NW8       30.15S
ROCKFORD       MOCLDY    65  49  56 W13       30.13S
PEORIA         PTCLDY    69  48  47 NW5       30.15F
$$

NOTE: "FAIR" INDICATES FEW OR NO CLOUDS BELOW 12,000 FEET WITH NO
SIGNIFICANT WEATHER AND/OR OBSTRUCTIONS TO VISIBILITY. WIND
SPEEDS ARE IN MILES-PER-HOUR.




USA.gov is the U.S. government's official web portal to all federal, state and local government web resources and services.